Simultaneous Nadir Overpasses (SNOs) Predictions

Prediction of SNOs between AQUA and METOP-A Satellite Orbit:

Table of predicted SNOs for the next 14.0 days since TLE Epoch: 8/14/2021
Index Date (AQUA) Time (AQUA) Lat,Lon (AQUA) SZA (AQUA ) Date (METOP-A) Time (METOP-A) Lat,Lon (METOP-A) SZA (METOP-A ) Distance(km) Time Diff (sec)
1 08/14/2021 17:23:16 -77.54, 82.53 116.02 08/14/2021 17:22:04 -77.49, 81.66 115.98 21.73 72
2 08/14/2021 18:12:46 77.66,-110.34 64.15 08/14/2021 18:12:40 77.67,-110.22 64.15 3.02 6
3 08/14/2021 19:02:12 -77.67, 57.25 115.83 08/14/2021 19:03:21 -77.69, 57.18 115.83 2.16 69
4 08/17/2021 12:57:33 -77.64, 148.56 115.02 08/17/2021 12:56:22 -77.61, 148.54 115.02 2.86 71
5 08/17/2021 13:47:01 77.68, -43.96 65.04 08/17/2021 13:47:01 77.66, -43.92 65.03 2.09 0
6 08/17/2021 14:36:27 -77.68, 123.66 114.94 08/17/2021 14:37:41 -77.72, 123.69 114.93 4.67 74
7 08/20/2021 08:31:47 -77.65,-145.06 114.10 08/20/2021 08:30:41 -77.65,-144.96 114.09 2.32 66
8 08/20/2021 09:21:15 77.70, 22.40 65.97 08/20/2021 09:21:20 77.69, 22.56 65.96 3.87 5
9 08/20/2021 10:10:47 -77.96,-171.13 113.69 08/20/2021 10:11:55 -77.97,-168.81 113.86 53.85 68
10 08/23/2021 04:06:02 -77.67, -78.70 113.14 08/23/2021 04:05:02 -77.64, -78.66 113.16 3.51 60
11 08/23/2021 04:55:29 77.68, 88.93 66.88 08/23/2021 04:55:41 77.68, 88.84 66.88 1.95 12
12 08/25/2021 23:40:16 -77.65, -12.17 112.22 08/25/2021 23:39:22 -77.67, -12.17 112.18 2.49 54
13 08/26/2021 00:29:44 77.71, 155.24 67.87 08/26/2021 00:30:01 77.71, 155.32 67.86 1.97 17



Historial Predications of SNOs between AQUA and METOP-A
